Location: Unspecified
(0.0000°N, 0.0000°E)
Time: 08:49:21
(UTC+00:00)

METEOR M2 - Pass Details

Date: 05 December 2022
Orbit: 818 x 827 km, 98.4° (Epoch: 01 February)

Event Time Altitude Azimuth Distance (km) Brightness Sun altitude
Rises 05:03:35 0° 50° (NE) 3,336 ? -10.8°
Reaches altitude 10° 05:07:26 10° 79° (E) 2,406 ? -9.9°
Maximum altitude 05:09:35 12° 103° (ESE) 2,236 ? -9.4°
Drops below altitude 10° 05:11:44 10° 127° (SE) 2,410 ? -9.0°
Sets 05:15:35 0° 155° (SSE) 3,345 ? -8.1°
